Location: Clanezzo
(45.7500°N, 9.6000°E)
Time: 09:07:20
(UTC+00:00)

CUTE-I - Pass Details

Date: 03 December 2023
Orbit: 807 x 822 km, 98.7° (Epoch: 23 February)

Event Time Altitude Azimuth Distance (km) Brightness Sun altitude
Rises 04:20:00 0° 31° (NNE) 3,360 ? -24.3°
Reaches altitude 10° 04:23:23 10° 53° (NE) 2,424 ? -23.8°
Maximum altitude 04:26:30 15° 89° (E) 2,059 ? -23.2°
Drops below altitude 10° 04:29:36 10° 125° (SE) 2,418 ? -22.7°
Sets 04:32:58 0° 147° (SSE) 3,346 ? -22.1°
